Preview of NWS' New Version of Forecast
This preview is not operational and should not be used for support decisions.

Regional Weather Roundup (RWR)

Issued by National Weather Service (NWS)

                            
000
ASUS44 KMEG 211400
RWRTN 
TENNESSEE HOURLY STATE WEATHER ROUNDUP
NATIONAL WEATHER SERVICE MEMPHIS TN
900 AM CDT SAT SEP 21 2019

TNZ002-004-019-021-049-052-054-088>092-211500-
WEST TENNESSEE
  
CITY           SKY/WX    TMP DP  RH WIND       PRES   REMARKS
MEMPHIS INTL   FAIR      77  59  53 S10       30.23R                  
NWS MEMPHIS      N/A     74 N/A N/A MISG        N/A                   
JACKSON        FAIR      75  59  57 S6        30.26R                  
DYERSBURG      FAIR      74  63  68 S8        30.24S                  
$$

TNZ008-025-027-028-033-062-065-066-211500-
NORTH MIDDLE TENNESSEE
  
CITY           SKY/WX    TMP DP  RH WIND       PRES   REMARKS
NASHVILLE      PTSUNNY   76  54  46 S9        30.30R                  
CLARKSVILLE    FAIR      74  59  59 S5        30.27S                  
SMYRNA         FAIR      74  58  57 VRB7      30.31R                  
CROSSVILLE     FAIR      71  51  49 VRB6      30.37S                  
$$

TNZ061-075-076-078-094-096-097-211500-
SOUTH MIDDLE TENNESSEE
  
CITY           SKY/WX    TMP DP  RH WIND       PRES   REMARKS
$$

TNZ017-018-042-046-047-211500-
NORTHEAST TENNESSEE
  
CITY           SKY/WX    TMP DP  RH WIND       PRES   REMARKS
TRI CITIES     FAIR      68  61  78 CALM      30.37S                  
$$

TNZ012-013-036-069-073-074-211500-
CENTRAL EAST TENNESSEE
  
CITY           SKY/WX    TMP DP  RH WIND       PRES   REMARKS
KNOXVILLE      FAIR      73  59  61 W6        30.34R                  
OAK RIDGE      FAIR      74  60  61 VRB3      30.35S                  
$$

TNZ083-085-099-211500-
SOUTHEAST TENNESSEE
  
CITY           SKY/WX    TMP DP  RH WIND       PRES   REMARKS
CHATTANOOGA    FAIR      72  58  61 CALM      30.34S                  
$$

SKY/WX REPORTED AS FAIR MEANS FEW OR NO CLOUDS BELOW
12 THOUSAND FEET.